This is the latest recevied weather packets stored in our database for station/object SP1BMW-13. If no packets are shown the sender has not sent any weather packets the latest 1 day(s).
| Time | Temp. | Humidity | Pressure | Rain* | Wind** | Luminosity | Snow |
|---|---|---|---|---|---|---|---|
| 1778001826 | 12.22° C | 91% | 1007.9 hPa | 0 mm | 0.89 m/s, 355° | 9 W/m² | - |
| 1778001766 | 12.22° C | 91% | 1008 hPa | 0 mm | 0 m/s | 9 W/m² | - |
| 1778001706 | 12.22° C | 91% | 1008.1 hPa | 0 mm | 0 m/s | 9 W/m² | - |
| 1778001646 | 12.22° C | 91% | 1008.2 hPa | 0 mm | 0.45 m/s, 5° | 9 W/m² | - |
| 1778001586 | 12.22° C | 91% | 1008.1 hPa | 0 mm | 0.45 m/s, 41° | 11 W/m² | - |
| 1778001527 | 12.22° C | 91% | 1008.1 hPa | 0 mm | 0.89 m/s, 337° | 11 W/m² | - |
| 1778001466 | 12.22° C | 91% | 1008 hPa | 0 mm | 1.79 m/s, 309° | 11 W/m² | - |
| 1778001406 | 12.22° C | 91% | 1008 hPa | 0 mm | 1.34 m/s, 326° | 12 W/m² | - |
| 1778001346 | 12.22° C | 91% | 1008.1 hPa | 0 mm | 0.89 m/s, 323° | 12 W/m² | - |
| 1778001286 | 12.22° C | 91% | 1008.1 hPa | 0 mm | 0.45 m/s, 345° | 12 W/m² | - |
| 1778001227 | 12.22° C | 91% | 1008.1 hPa | 0 mm | 0.45 m/s, 327° | 12 W/m² | - |
| 1778001166 | 12.22° C | 91% | 1008.1 hPa | 0 mm | 0 m/s | 12 W/m² | - |
| 1778001106 | 12.22° C | 91% | 1008.2 hPa | 0 mm | 0.89 m/s, 306° | 12 W/m² | - |
| 1778001047 | 12.22° C | 91% | 1008.1 hPa | 0 mm | 0.45 m/s, 309° | 13 W/m² | - |
| 1778000987 | 12.22° C | 91% | 1008.1 hPa | 0 mm | 0.89 m/s, 333° | 13 W/m² | - |
| 1778000926 | 12.22° C | 91% | 1008.2 hPa | 0 mm | 0.45 m/s, 328° | 13 W/m² | - |
| 1778000866 | 12.22° C | 91% | 1008 hPa | 0 mm | 0 m/s | 13 W/m² | - |
| 1778000807 | 12.22° C | 91% | 1008 hPa | 0 mm | 0.89 m/s, 326° | 13 W/m² | - |
| 1778000749 | 12.22° C | 91% | 1008 hPa | 0 mm | 0.45 m/s, 293° | 14 W/m² | - |
| 1778000686 | 12.22° C | 91% | 1008.1 hPa | 0 mm | 0.89 m/s, 308° | 15 W/m² | - |
| 1778000626 | 12.22° C | 91% | 1008 hPa | 0 mm | 0.89 m/s, 279° | 17 W/m² | - |
| 1778000566 | 12.22° C | 90% | 1008 hPa | 0 mm | 0 m/s | 17 W/m² | - |
| 1778000506 | 12.22° C | 91% | 1008.1 hPa | 0 mm | 0.89 m/s, 333° | 17 W/m² | - |
| 1778000447 | 12.22° C | 91% | 1008.1 hPa | 0 mm | 0.45 m/s, 327° | 18 W/m² | - |
| 1778000386 | 12.22° C | 91% | 1008.1 hPa | 0 mm | 0.45 m/s, 335° | 18 W/m² | - |
* Rain latest hour (hover to see other rain measurements)
** Current wind speed in m/s (hover to see current wind gust speed)